Weather in Belfast

United Kingdom     54°35′45″N   5°55′53″W
temp.,
°C
wind,
m/s
gust,
m/s
humid.,
%
clouds,
%
prec.,
mm/h
press.,
hPa
HPBL,
m
16 may, sun
sun1601:00+8ene379699 0.3 995235
04:00+7ne3597100 0.3 995138
07:00+8ne3797100 0.5 995360
10:00+9ne6896100 0.7 996593
13:00+10ne559098 1.6 996637
16:00+11ne4486100 1.6 997803
19:00+11nne248311 2.3 998774
22:00+6nw239339 0.1 100058
17 may, mon
mon1701:00+5wnw379582 0.1 1002209
04:00+4w359794 0.0 1003127
07:00+5w249479 0.0 1005130
10:00+10wnw466477 0.0 10061314
13:00+11w556173 0.0 10071321
16:00+12w456681 0.2 10071150
19:00+11wnw247636 0.8 1007803
22:00+7ne118790 0.5 100911
18 may, tue
tue1801:00+6w229130 0.6 101018
04:00+3w229335 0.0 101022
07:00+5wsw239446 0.0 1011112
10:00+10w347521 0.0 1011628
13:00+12w346221 0.3 10121379
16:00+12w336944 1.4 10121150
19:00+11nnw238699 4.3 1013305
22:00+6n11919 1.0 101410
19 may, wed
wed1901:00+4wnw22935 1.0 101516
04:00+3w23955 0.0 101637
07:00+5w25965 0.0 1017148
10:00+10wnw568036 0.0 1018849
13:00+12nw567282 1.0 10191312
16:00+12nw566348 0.3 10211300
19:00+10nnw46686 0.3 1022743
22:00+4nw11875 0.0 102410
20 may, thu
thu2001:00+3wnw118699 0.0 102510
04:00+4nnw1179100 0.0 102412
07:00+7se127597 0.0 1023110
10:00+10ssw3577100 0.0 1021834
13:00+11s5772100 0.1 10191185
16:00+10se41083100 0.0 1015668
19:00+9sse31097100 1.9 1012599
22:00+9sse31098100 1.9 1009471